#timestamp,LO_Frequency,Hit 
1498100415.5,286046999.8,N
1498100435.3,286047002.5,N
1498100455.1,286047001.4,N
1498100475.9,286047003.7,N
1498100495.7,286047003.3,N
1498100515.5,286047004.1,N
1498100535.4,286047004.3,N
1498100555.2,286047002.9,N
1498100575.0,286047003.4,N
1498100575.9,286047003.4,N
1498100595.8,286047005.5,N
1498100615.6,286047005.3,N
1498100635.4,286047005.8,N
1498100655.2,286047004.6,N
1498100675.1,286047005.8,N
1498100676.0,286047005.8,N
1498100695.8,286047004.7,N
1498100715.6,286047004.5,N
1498100735.5,286047006.6,Y
1498100755.3,286047004.9,N
1498100775.1,286047005.0,N
1498100795.9,286047005.0,N
1498100815.7,286047005.2,N
1498100835.5,286047007.6,Y
1498100855.4,286047003.1,N
1498100875.2,286046999.7,N
1498100895.0,286047002.7,N
1498100895.9,286047002.7,N
1498100915.8,286047002.4,N
1498100935.6,286047004.2,N
1498100955.4,286047002.5,N
1498100975.3,286047001.7,N
1498100995.1,286047003.8,N
1498100996.0,286047003.8,N
1498101015.8,286047002.9,N
1498101035.7,286047004.5,N
1498101055.5,286047005.9,N
1498101075.3,286047004.1,N
1498101095.1,286047004.6,N
1498101115.9,286047007.5,Y
1498101135.7,286047005.6,N
1498101155.5,286047005.7,N
1498101175.4,286047005.7,N
1498101195.2,286047005.4,N
1498101215.0,286047005.6,N
1498101215.9,286047005.6,N
1498101235.8,286047005.6,N
1498101255.6,286047005.9,N
1498101275.4,286047003.0,N
1498101295.3,286047004.1,N
1498101315.1,286046999.8,N
1498101316.0,286046999.8,N
1498101335.8,286046999.9,N
1498101355.7,286046999.7,N
1498101375.5,286047000.0,N
1498101395.3,286046999.7,N
1498101415.1,286047000.1,N
1498101435.9,286047000.1,N
1498101455.7,286047001.4,N
1498101475.5,286047001.6,N
1498101495.4,286046999.8,N
1498101515.2,286047001.6,N
1498101535.0,286047001.4,N
1498101535.9,286047001.4,N
1498101555.8,286047002.6,N
1498101575.6,286047002.3,N
1498101595.4,286047001.8,N
1498101615.3,286047004.4,N
1498101635.1,286047001.4,N
1498101636.0,286047001.4,N
1498101655.8,286047004.2,N
1498101675.7,286047003.8,N
1498101695.5,286047003.1,N
1498101715.3,286047003.4,N
1498101735.1,286047005.4,N
1498101755.9,286047006.4,Y
1498101775.7,286047005.6,N
1498101795.5,286047004.7,N
1498101815.4,286047005.0,N
1498101835.2,286047004.0,N
1498101855.0,286047002.8,N
1498101855.9,286047002.8,N
1498101875.8,286047002.6,N
1498101895.6,286047003.7,N
1498101915.4,286047005.3,N
1498101935.3,286047005.7,N
1498101955.1,286047005.2,N
1498101956.0,286047005.2,N
1498101975.8,286047004.8,N
1498101995.7,286047005.7,N
1498102015.5,286047003.2,N
1498102035.3,286047002.1,N
1498102055.2,286047001.8,N
1498102075.9,286047003.1,N
1498102095.7,286047003.4,N
1498102115.5,286047005.0,N
1498102135.4,286047005.4,N
1498102155.2,286047004.8,N
1498102175.0,286047004.8,N
1498102175.9,286047004.8,N
1498102195.8,286047007.3,Y
1498102215.6,286047001.6,N
1498102235.4,286047000.1,N
1498102255.3,286047002.8,N
1498102275.1,286047002.3,N
1498102295.8,286047002.8,N
1498102315.7,286047002.7,N
1498102335.5,286046999.7,N
1498102355.3,286046999.7,N
1498102375.2,286047002.5,N
1498102395.9,286047004.2,N
1498102415.7,286047004.0,N
1498102435.5,286047002.1,N
1498102455.4,286047004.3,N
1498102475.2,286047004.3,N
1498102495.0,286047003.6,N
1498102495.9,286047003.6,N
1498102515.8,286047003.8,N
1498102535.6,286047004.3,N
1498102555.4,286047004.1,N
1498102575.3,286047004.2,N
1498102595.1,286047002.4,N
1498102596.0,286047002.4,N
1498102615.8,286047002.1,N
1498102635.7,286047003.7,N
1498102655.5,286047005.9,Y
1498102675.3,286046999.9,N
1498102695.2,286047002.3,N
1498102715.9,286047002.3,N
1498102735.7,286047001.4,N
1498102755.6,286047002.4,N
1498102775.4,286047002.5,N
1498102795.2,286046999.8,N
1498102815.0,286047004.3,N
1498102816.0,286047004.3,N
1498102835.8,286047002.2,N
1498102855.6,286047001.4,N
1498102875.4,286047001.3,N
1498102895.3,286047002.8,N
1498102915.1,286047005.3,N
1498102935.8,286047007.4,Y
1498102955.7,286047005.4,N
1498102975.5,286047005.6,N
1498102995.3,286047003.6,N
1498103015.2,286047001.7,N
1498103035.9,286047000.3,N
1498103055.7,286047002.3,N
1498103075.6,286047001.5,N
1498103095.4,286047001.1,N
1498103115.2,286046998.3,N
1498103135.0,286047001.1,N
1498103136.0,286047001.1,N
1498103155.8,286046998.1,N
1498103175.6,286047001.1,N
1498103195.4,286047000.8,N
1498103215.3,286047002.6,N
1498103235.1,286047002.5,N
1498103255.8,286047002.8,N
1498103275.7,286047002.5,N
1498103295.5,286047001.5,N
1498103315.3,286047004.1,N
1498103335.2,286047002.9,N
1498103355.9,286047003.2,N
1498103375.7,286047002.9,N
1498103395.6,286047007.6,Y
1498103415.4,286047001.3,N
1498103435.2,286047003.1,N
1498103455.1,286047003.7,N
1498103456.0,286047003.7,N
1498103475.8,286047001.5,N
1498103495.6,286047004.1,N
1498103515.4,286047002.7,N
1498103535.3,286047002.0,N
1498103555.1,286047001.6,N
1498103575.8,286047001.6,N
1498103595.7,286047002.3,N
1498103615.5,286047001.7,N
1498103635.3,286047004.1,N
1498103655.2,286047005.6,Y
1498103675.9,286047002.5,N
1498103695.7,286047000.8,N
1498103715.6,286046998.2,N
1498103735.4,286046998.4,N
1498103755.2,286046998.5,N
1498103775.1,286046996.8,N
1498103776.0,286046996.8,N
1498103795.8,286046996.6,N
1498103815.6,286046999.2,N
1498103835.5,286046999.3,N
1498103855.3,286046998.9,N
1498103875.1,286047000.3,N
1498103895.8,286047000.4,N
1498103915.7,286047002.8,N
1498103935.5,286046999.8,N
1498103955.3,286047002.6,N
1498103975.2,286047001.6,N
1498103995.0,286047002.2,N
1498103995.9,286047002.2,N
